,,Stat1,,Stat2,,Stat3,,Stat4,,Wind1,,Wind1,
time,status,PR1M_SUM,status,RH1M_AVG,status,SR1M_AVG,status,TA1M_AVG,status,W1dAve1m,status,W1sAve1m,
1999-08-16, 00:00:00,VALID,0,VALID,89.2768,VALID,0.0339617,VALID,19.8867,VALID,192,VALID,0.761719,
1999-08-16, 00:01:00,VALID,0,VALID,89.5515,VALID,0.0339617,VALID,19.8315,VALID,192,VALID,0.786892,
1999-08-16, 00:02:00,VALID,0,VALID,89.685,VALID,0,VALID,19.783,VALID,194,VALID,0.571691,
1999-08-16, 00:03:00,VALID,0,VALID,89.9317,VALID,0,VALID,19.7544,VALID,188,VALID,0.563101,
1999-08-16, 00:04:00,VALID,0,VALID,90.4607,VALID,0,VALID,19.6736,VALID,170,VALID,0.479096,
1999-08-16, 00:05:00,VALID,0,VALID,90.8676,VALID,0,VALID,19.5508,VALID,155,VALID,0.639824,
1999-08-16, 00:06:00,VALID,0,VALID,91.5924,VALID,0,VALID,19.4317,VALID,151,VALID,0.519922,
1999-08-16, 00:07:00,VALID,0,VALID,91.9027,VALID,0,VALID,19.38,VALID,152,VALID,0.101563,
1999-08-16, 00:08:00,VALID,0,VALID,91.9637,VALID,-0.0169808,VALID,19.3281,VALID,163,VALID,0,
1999-08-16, 00:09:00,VALID,0,VALID,92.3477,VALID,0,VALID,19.2736,VALID,179,VALID,0,
1999-08-16, 00:10:00,VALID,0,VALID,92.1468,VALID,0,VALID,19.1868,VALID,178,VALID,0,
1999-08-16, 00:11:00,VALID,0,VALID,92.7686,VALID,-0.0169808,VALID,19.0569,VALID,177,VALID,0,
1999-08-16, 00:12:00,VALID,0,VALID,93.6473,VALID,0,VALID,18.9594,VALID,177,VALID,0.106571,
1999-08-16, 00:13:00,VALID,0,VALID,94.1636,VALID,0,VALID,18.8921,VALID,177,VALID,0.29153,
1999-08-16, 00:14:00,VALID,0,VALID,94.6163,VALID,0,VALID,18.8376,VALID,177,VALID,0.302684,
1999-08-16, 00:15:00,VALID,0,VALID,94.8248,VALID,0,VALID,18.7986,VALID,177,VALID,0.083826,
1999-08-16, 00:16:00,VALID,0,VALID,94.9736,VALID,0,VALID,18.7626,VALID,177,VALID,0.0560547,
1999-08-16, 00:17:00,VALID,0,VALID,95.0868,VALID,0,VALID,18.7538,VALID,177,VALID,0,
1999-08-16, 00:18:00,VALID,0,VALID,95.088,VALID,0.0339617,VALID,18.7372,VALID,177,VALID,0,
1999-08-16, 00:19:00,VALID,0,VALID,94.9227,VALID,0.0169808,VALID,18.7181,VALID,177,VALID,0,
1999-08-16, 00:20:01,VALID,0,VALID,95.1033,VALID,-0.0169808,VALID,18.7213,VALID,177,VALID,0,
1999-08-16, 00:21:00,VALID,0,VALID,95.322,VALID,0.0169808,VALID,18.7474,VALID,177,VALID,0.00575658,
1999-08-16, 00:22:00,VALID,0,VALID,95.2076,VALID,0,VALID,18.7668,VALID,177,VALID,0.251402,
1999-08-16, 00:23:00,VALID,0,VALID,95.0092,VALID,0,VALID,18.7601,VALID,177,VALID,0.0732686,
1999-08-16, 00:24:00,VALID,0,VALID,94.9278,VALID,0,VALID,18.8125,VALID,177,VALID,0,
1999-08-16, 00:25:00,VALID,0,VALID,94.6176,VALID,0,VALID,18.851,VALID,177,VALID,0,
1999-08-16, 00:26:00,VALID,0,VALID,94.2831,VALID,-0.0169808,VALID,18.8381,VALID,172,VALID,0.0249155,
1999-08-16, 00:27:00,VALID,0,VALID,93.5519,VALID,0,VALID,18.7928,VALID,118,VALID,0.31949,
1999-08-16, 00:28:00,VALID,0,VALID,93.9258,VALID,-0.0169808,VALID,18.7344,VALID,128,VALID,0,
1999-08-16, 00:29:00,VALID,0,VALID,94.5972,VALID,0,VALID,18.6892,VALID,147,VALID,0.174959,
1999-08-16, 00:30:00,VALID,0,VALID,95.1961,VALID,-0.0169808,VALID,18.6828,VALID,151,VALID,0.0416667,
1999-08-16, 00:31:00,VALID,0,VALID,95.1745,VALID,0.0169808,VALID,18.692,VALID,151,VALID,0,
1999-08-16, 00:32:00,VALID,0,VALID,94.9723,VALID,0,VALID,18.7213,VALID,151,VALID,0,
1999-08-16, 00:33:00,VALID,0,VALID,94.821,VALID,0,VALID,18.7478,VALID,151,VALID,0,
1999-08-16, 00:34:00,VALID,0,VALID,94.6748,VALID,-0.0169808,VALID,18.7543,VALID,151,VALID,0,
1999-08-16, 00:35:00,VALID,0,VALID,93.9932,VALID,0,VALID,18.7347,VALID,151,VALID,0,
1999-08-16, 00:36:00,VALID,0,VALID,94.3314,VALID,-0.0169808,VALID,18.7382,VALID,153,VALID,0.162059,
1999-08-16, 00:37:00,VALID,0,VALID,94.4446,VALID,-0.0169808,VALID,18.7121,VALID,161,VALID,0.139803,
1999-08-16, 00:38:00,VALID,0,VALID,94.5171,VALID,-0.0169808,VALID,18.6894,VALID,167,VALID,0.0200321,
1999-08-16, 00:39:00,VALID,0,VALID,94.6048,VALID,0,VALID,18.6768,VALID,171,VALID,0.0749578,
1999-08-16, 00:40:00,VALID,0,VALID,94.6989,VALID,0,VALID,18.6417,VALID,171,VALID,0.303125,
1999-08-16, 00:41:00,VALID,0,VALID,95.0537,VALID,0,VALID,18.596,VALID,169,VALID,0.429102,
1999-08-16, 00:42:01,VALID,0,VALID,95.2851,VALID,0,VALID,18.5441,VALID,170,VALID,0.462416,
1999-08-16, 00:43:00,VALID,0,VALID,95.4326,VALID,-0.0169808,VALID,18.502,VALID,187,VALID,0.500206,
1999-08-16, 00:44:00,VALID,0,VALID,95.6348,VALID,0,VALID,18.4663,VALID,199,VALID,0.509615,
1999-08-16, 00:45:00,VALID,0,VALID,95.8472,VALID,-0.0169808,VALID,18.4674,VALID,202,VALID,0.68236,
1999-08-16, 00:46:00,VALID,0,VALID,95.7785,VALID,-0.0509425,VALID,18.425,VALID,198,VALID,0.748598,
1999-08-16, 00:47:00,VALID,0,VALID,95.7073,VALID,-0.0679233,VALID,18.4054,VALID,205,VALID,0.705659,
1999-08-16, 00:48:00,VALID,0,VALID,95.8942,VALID,0,VALID,18.3703,VALID,205,VALID,0.848047,
1999-08-16, 00:49:00,VALID,0,VALID,96.4461,VALID,0,VALID,18.3703,VALID,191,VALID,1.00195,
1999-08-16, 00:50:00,VALID,0,VALID,96.7068,VALID,-0.0169808,VALID,18.3991,VALID,186,VALID,0.987331,
1999-08-16, 00:51:00,VALID,0,VALID,96.5873,VALID,-0.0509425,VALID,18.4737,VALID,191,VALID,1.10773,
1999-08-16, 00:52:00,VALID,0,VALID,96.2363,VALID,-0.0339617,VALID,18.5775,VALID,188,VALID,1.22877,
1999-08-16, 00:53:01,VALID,0,VALID,95.6374,VALID,0,VALID,18.7036,VALID,180,VALID,1.1616,
1999-08-16, 00:54:00,VALID,0,VALID,95.0054,VALID,0,VALID,18.8194,VALID,190,VALID,1.1891,
1999-08-16, 00:55:00,VALID,0,VALID,94.3086,VALID,-0.0339617,VALID,18.9231,VALID,192,VALID,0.866132,
1999-08-16, 00:56:00,VALID,0,VALID,93.9436,VALID,-0.0169808,VALID,18.978,VALID,179,VALID,0.811133,
1999-08-16, 00:57:00,VALID,0,VALID,91.6598,VALID,-0.0169808,VALID,18.9189,VALID,159,VALID,0.604492,
1999-08-16, 00:58:00,VALID,0,VALID,92.2282,VALID,0,VALID,18.7735,VALID,139,VALID,0.7481,
1999-08-16, 00:59:00,VALID,0,VALID,93.7948,VALID,0,VALID,18.6479,VALID,142,VALID,0.871094,
1999-08-16, 01:00:00,VALID,0,VALID,95.3424,VALID,-0.0679233,VALID,18.6516,VALID,159,VALID,0.764623,
1999-08-16, 01:01:00,VALID,0,VALID,95.8269,VALID,-0.0339617,VALID,18.6837,VALID,170,VALID,0.782689,
1999-08-16, 01:02:00,VALID,0,VALID,95.6857,VALID,0,VALID,18.7128,VALID,180,VALID,0.733373,
1999-08-16, 01:03:00,VALID,0,VALID,95.2445,VALID,-0.0169808,VALID,18.7227,VALID,193,VALID,0.682644,
1999-08-16, 01:04:01,VALID,0,VALID,95.5,VALID,-0.0169808,VALID,18.7264,VALID,199,VALID,0.793945,
1999-08-16, 01:05:00,VALID,0,VALID,95.6781,VALID,0,VALID,18.7361,VALID,203,VALID,0.655664,
1999-08-16, 01:06:00,VALID,0,VALID,95.6768,VALID,0,VALID,18.7421,VALID,211,VALID,0.422508,
1999-08-16, 01:07:00,VALID,0,VALID,95.6959,VALID,-0.0169808,VALID,18.749,VALID,204,VALID,0.297492,
1999-08-16, 01:08:00,VALID,0,VALID,95.2775,VALID,-0.0169808,VALID,18.7324,VALID,199,VALID,0.0398638,
1999-08-16, 01:09:00,VALID,0,VALID,95.5026,VALID,-0.0339617,VALID,18.7324,VALID,224,VALID,0.0953947,
1999-08-16, 01:10:00,VALID,0,VALID,95.598,VALID,-0.0509425,VALID,18.7294,VALID,224,VALID,0.386018,
1999-08-16, 01:11:00,VALID,0,VALID,95.748,VALID,-0.0339617,VALID,18.7093,VALID,225,VALID,0.474451,
1999-08-16, 01:12:00,VALID,0,VALID,95.3068,VALID,-0.0339617,VALID,18.6837,VALID,225,VALID,0.463867,
1999-08-16, 01:13:00,VALID,0,VALID,94.4065,VALID,-0.0509425,VALID,18.6156,VALID,224,VALID,0.508789,
1999-08-16, 01:14:01,VALID,0,VALID,94.2068,VALID,-0.0339617,VALID,18.5521,VALID,221,VALID,0.466427,
1999-08-16, 01:15:01,VALID,0,VALID,95.0995,VALID,-0.0169808,VALID,18.4871,VALID,216,VALID,0.519942,
1999-08-16, 01:16:00,VALID,0,VALID,95.6005,VALID,-0.0679233,VALID,18.4287,VALID,204,VALID,0.705729,
1999-08-16, 01:17:00,VALID,0,VALID,96.7081,VALID,-0.0679233,VALID,18.4321,VALID,204,VALID,0.795025,
1999-08-16, 01:18:00,VALID,0,VALID,96.1638,VALID,-0.0509425,VALID,18.41,VALID,198,VALID,0.63121,
1999-08-16, 01:19:00,VALID,0,VALID,96.6966,VALID,-0.0339617,VALID,18.4058,VALID,198,VALID,1.12183,
1999-08-16, 01:20:00,VALID,0,VALID,96.9331,VALID,-0.0169808,VALID,18.4451,VALID,191,VALID,1.13027,
1999-08-16, 01:21:00,VALID,0,VALID,96.7259,VALID,-0.0679233,VALID,18.4577,VALID,197,VALID,1.13437,
1999-08-16, 01:22:00,VALID,0,VALID,96.6712,VALID,-0.0509425,VALID,18.5616,VALID,192,VALID,1.16955,
1999-08-16, 01:23:00,VALID,0,VALID,96.1638,VALID,-0.0679233,VALID,18.665,VALID,185,VALID,1.06538,
1999-08-16, 01:24:00,VALID,0,VALID,95.6793,VALID,0,VALID,18.7739,VALID,185,VALID,1.02163,
1999-08-16, 01:25:00,VALID,0,VALID,95.0677,VALID,0.0339617,VALID,18.8773,VALID,182,VALID,0.80551,
1999-08-16, 01:26:01,VALID,0,VALID,94.5006,VALID,0,VALID,18.926,VALID,172,VALID,0.84976,
1999-08-16, 01:27:00,VALID,0,VALID,94.1903,VALID,0.0339617,VALID,18.9357,VALID,162,VALID,0.963894,
1999-08-16, 01:28:00,VALID,0,VALID,93.8431,VALID,0.0339617,VALID,18.8806,VALID,148,VALID,1.00879,
1999-08-16, 01:29:00,VALID,0,VALID,92.6796,VALID,0,VALID,18.7444,VALID,139,VALID,0.862305,
1999-08-16, 01:30:00,VALID,0,VALID,93.7465,VALID,0.0169808,VALID,18.5798,VALID,124,VALID,0.823902,
1999-08-16, 01:31:00,VALID,0,VALID,94.4497,VALID,0,VALID,18.4573,VALID,133,VALID,0.77241,
1999-08-16, 01:32:00,VALID,0,VALID,95.0474,VALID,0.0169808,VALID,18.3857,VALID,142,VALID,0.710737,
1999-08-16, 01:33:00,VALID,0,VALID,94.9088,VALID,0,VALID,18.3149,VALID,144,VALID,0.693051,
1999-08-16, 01:34:00,VALID,0,VALID,95.4975,VALID,0.0169808,VALID,18.2473,VALID,149,VALID,0.641627,
1999-08-16, 01:35:00,VALID,0,VALID,96.2299,VALID,0.0169808,VALID,18.2378,VALID,155,VALID,0.621833,
1999-08-16, 01:36:01,VALID,0,VALID,96.3444,VALID,0.0169808,VALID,18.2147,VALID,158,VALID,0.517187,
1999-08-16, 01:37:01,VALID,0,VALID,95.3131,VALID,0,VALID,18.1208,VALID,163,VALID,0.273438,
1999-08-16, 01:38:00,VALID,0,VALID,93.9716,VALID,0.0679233,VALID,18.0112,VALID,156,VALID,0.382179,
1999-08-16, 01:39:00,VALID,0,VALID,94.5845,VALID,-0.0849042,VALID,17.9122,VALID,151,VALID,0.321957,
1999-08-16, 01:40:00,VALID,0,VALID,95.6056,VALID,-0.0849042,VALID,17.8868,VALID,151,VALID,0.34976,
1999-08-16, 01:41:00,VALID,0,VALID,96.6534,VALID,-0.101885,VALID,17.8866,VALID,152,VALID,0.343339,
1999-08-16, 01:42:00,VALID,0,VALID,97.2256,VALID,-0.0679233,VALID,17.9191,VALID,168,VALID,0.406651,
1999-08-16, 01:43:00,VALID,0,VALID,97.8309,VALID,-0.0509425,VALID,17.9803,VALID,177,VALID,0.519426,
1999-08-16, 01:44:00,VALID,0,VALID,98.0356,VALID,-0.0679233,VALID,18.0541,VALID,178,VALID,0.623438,
1999-08-16, 01:45:00,VALID,0,VALID,97.3935,VALID,-0.0339617,VALID,18.0123,VALID,179,VALID,0.246484,
1999-08-16, 01:46:01,VALID,0,VALID,97.1137,VALID,-0.0679233,VALID,17.9964,VALID,180,VALID,0.283995,
1999-08-16, 01:47:00,VALID,0,VALID,96.8874,VALID,-0.0509425,VALID,17.9676,VALID,182,VALID,0.29153,
1999-08-16, 01:48:00,VALID,0,VALID,97.3782,VALID,-0.101885,VALID,17.98,VALID,199,VALID,0.523638,
1999-08-16, 01:49:00,VALID,0,VALID,97.7063,VALID,-0.0849042,VALID,18.0229,VALID,203,VALID,0.73088,
1999-08-16, 01:50:00,VALID,0,VALID,98.0992,VALID,-0.0509425,VALID,18.106,VALID,209,VALID,1.07171,
1999-08-16, 01:51:00,VALID,0,VALID,98.2556,VALID,-0.0509425,VALID,18.239,VALID,216,VALID,1.27133,
1999-08-16, 01:52:00,VALID,0,VALID,98.1361,VALID,-0.101885,VALID,18.3557,VALID,212,VALID,1.57793,
1999-08-16, 01:53:00,VALID,0,VALID,97.7991,VALID,-0.0679233,VALID,18.4458,VALID,209,VALID,1.47812,
1999-08-16, 01:54:00,VALID,0,VALID,97.4125,VALID,-0.0509425,VALID,18.5235,VALID,205,VALID,1.06292,
1999-08-16, 01:55:00,VALID,0,VALID,96.9853,VALID,-0.0169808,VALID,18.5653,VALID,202,VALID,0.811266,
1999-08-16, 01:56:00,VALID,0,VALID,96.7055,VALID,-0.0169808,VALID,18.5939,VALID,200,VALID,0.998598,
1999-08-16, 01:57:00,VALID,0,VALID,96.4347,VALID,0,VALID,18.623,VALID,196,VALID,0.847656,
1999-08-16, 01:58:00,VALID,0,VALID,96.2541,VALID,-0.0169808,VALID,18.6493,VALID,191,VALID,0.939904,
1999-08-16, 01:59:00,VALID,0,VALID,96.1422,VALID,-0.0339617,VALID,18.6722,VALID,187,VALID,0.957137,
1999-08-16, 02:00:00,VALID,0,VALID,95.8383,VALID,-0.0169808,VALID,18.6689,VALID,180,VALID,0.971875,
1999-08-16, 02:01:00,VALID,0,VALID,95.6743,VALID,-0.0169808,VALID,18.6625,VALID,178,VALID,1.12871,
1999-08-16, 02:02:00,VALID,0,VALID,95.9362,VALID,-0.0169808,VALID,18.6489,VALID,179,VALID,1.22086,
1999-08-16, 02:03:00,VALID,0,VALID,96.0125,VALID,0,VALID,18.6394,VALID,175,VALID,1.38363,
1999-08-16, 02:04:00,VALID,0,VALID,96.2007,VALID,-0.0339617,VALID,18.62,VALID,183,VALID,1.54768,
1999-08-16, 02:05:00,VALID,0,VALID,96.146,VALID,-0.0339617,VALID,18.6073,VALID,179,VALID,1.25103,
1999-08-16, 02:06:00,VALID,0,VALID,96.1282,VALID,-0.0339617,VALID,18.5683,VALID,173,VALID,1.12941,
1999-08-16, 02:07:00,VALID,0,VALID,96.2465,VALID,-0.0169808,VALID,18.5487,VALID,176,VALID,1.27027,
1999-08-16, 02:08:00,VALID,0,VALID,96.1308,VALID,0,VALID,18.5034,VALID,182,VALID,1.08496,
1999-08-16, 02:09:00,VALID,0,VALID,96.2821,VALID,-0.0509425,VALID,18.4681,VALID,192,VALID,1.0166,
1999-08-16, 02:10:00,VALID,0,VALID,96.6852,VALID,-0.0169808,VALID,18.4584,VALID,193,VALID,1.32179,
1999-08-16, 02:11:00,VALID,0,VALID,96.6763,VALID,-0.0339617,VALID,18.4517,VALID,201,VALID,1.25761,
1999-08-16, 02:12:00,VALID,0,VALID,96.7208,VALID,0,VALID,18.4485,VALID,201,VALID,1.02704,
1999-08-16, 02:13:00,VALID,0,VALID,96.806,VALID,-0.0509425,VALID,18.4619,VALID,205,VALID,0.822574,
1999-08-16, 02:14:00,VALID,0,VALID,96.7081,VALID,-0.0339617,VALID,18.4587,VALID,203,VALID,0.763221,
1999-08-16, 02:15:00,VALID,0,VALID,96.8187,VALID,-0.0339617,VALID,18.452,VALID,208,VALID,0.898226,
1999-08-16, 02:16:00,VALID,0,VALID,96.9039,VALID,-0.0509425,VALID,18.4651,VALID,199,VALID,0.778516,
1999-08-16, 02:17:00,VALID,0,VALID,96.9052,VALID,-0.0339617,VALID,18.4679,VALID,206,VALID,0.988281,
1999-08-16, 02:18:00,VALID,0,VALID,97.012,VALID,-0.0169808,VALID,18.494,VALID,208,VALID,0.907517,
1999-08-16, 02:19:00,VALID,0,VALID,96.9306,VALID,-0.0339617,VALID,18.5069,VALID,197,VALID,0.814145,
1999-08-16, 02:20:00,VALID,0,VALID,96.7335,VALID,-0.0679233,VALID,18.5164,VALID,191,VALID,0.657452,
1999-08-16, 02:21:00,VALID,0,VALID,96.586,VALID,-0.0509425,VALID,18.527,VALID,202,VALID,0.69778,
1999-08-16, 02:22:00,VALID,0,VALID,96.5974,VALID,-0.0339617,VALID,18.5261,VALID,188,VALID,0.781651,
1999-08-16, 02:23:00,VALID,0,VALID,96.4232,VALID,-0.0679233,VALID,18.53,VALID,198,VALID,0.602618,
1999-08-16, 02:24:00,VALID,0,VALID,96.3558,VALID,-0.0679233,VALID,18.5295,VALID,202,VALID,0.469141,
1999-08-16, 02:25:00,VALID,0,VALID,96.3431,VALID,-0.0169808,VALID,18.5164,VALID,208,VALID,0.571484,
1999-08-16, 02:26:00,VALID,0,VALID,96.3037,VALID,-0.0509425,VALID,18.5168,VALID,197,VALID,0.594172,
1999-08-16, 02:27:00,VALID,0,VALID,96.3953,VALID,-0.0679233,VALID,18.5067,VALID,198,VALID,0.742599,
1999-08-16, 02:28:00,VALID,0,VALID,96.3736,VALID,-0.0169808,VALID,18.5196,VALID,193,VALID,0.534054,
1999-08-16, 02:29:00,VALID,0,VALID,96.4677,VALID,0,VALID,18.5196,VALID,202,VALID,0.725123,
1999-08-16, 02:30:00,VALID,0,VALID,96.4627,VALID,-0.0849042,VALID,18.5397,VALID,203,VALID,0.618389,
1999-08-16, 02:31:00,VALID,0,VALID,96.2643,VALID,-0.0169808,VALID,18.5485,VALID,196,VALID,0.646537,
1999-08-16, 02:32:00,VALID,0,VALID,96.1041,VALID,0,VALID,18.5812,VALID,195,VALID,0.507227,
1999-08-16, 02:33:00,VALID,0,VALID,96.0214,VALID,-0.0339617,VALID,18.5849,VALID,203,VALID,0.600781,
1999-08-16, 02:34:00,VALID,0,VALID,96.0316,VALID,-0.0679233,VALID,18.5882,VALID,191,VALID,0.629856,
1999-08-16, 02:35:00,VALID,0,VALID,96.0672,VALID,-0.0679233,VALID,18.6165,VALID,181,VALID,0.894326,
1999-08-16, 02:36:00,VALID,0,VALID,95.6196,VALID,-0.0169808,VALID,18.6362,VALID,177,VALID,0.66887,
1999-08-16, 02:37:00,VALID,0,VALID,95.6119,VALID,-0.0339617,VALID,18.6456,VALID,177,VALID,0.778166,
1999-08-16, 02:38:00,VALID,0,VALID,95.7493,VALID,-0.0169808,VALID,18.6523,VALID,175,VALID,0.901442,
1999-08-16, 02:39:00,VALID,0,VALID,95.6196,VALID,-0.0339617,VALID,18.6685,VALID,174,VALID,0.854519,
1999-08-16, 02:40:00,VALID,0,VALID,95.3182,VALID,-0.0339617,VALID,18.6879,VALID,161,VALID,0.910547,
1999-08-16, 02:41:00,VALID,0,VALID,94.7129,VALID,-0.0169808,VALID,18.6422,VALID,157,VALID,0.875977,
1999-08-16, 02:42:01,VALID,0,VALID,94.128,VALID,-0.0679233,VALID,18.5164,VALID,143,VALID,0.861698,
1999-08-16, 02:43:00,VALID,0,VALID,95.4721,VALID,-0.0339617,VALID,18.4617,VALID,150,VALID,1.08429,
1999-08-16, 02:44:00,VALID,0,VALID,95.9209,VALID,-0.0339617,VALID,18.4677,VALID,153,VALID,0.879407,
1999-08-16, 02:45:00,VALID,0,VALID,96.1028,VALID,-0.0509425,VALID,18.4808,VALID,164,VALID,0.880757,
1999-08-16, 02:46:00,VALID,0,VALID,96.1905,VALID,-0.0169808,VALID,18.5134,VALID,177,VALID,0.968149,
1999-08-16, 02:47:00,VALID,0,VALID,95.9998,VALID,-0.0169808,VALID,18.5261,VALID,185,VALID,0.642525,
1999-08-16, 02:48:00,VALID,0,VALID,95.9476,VALID,-0.0169808,VALID,18.5392,VALID,202,VALID,0.669141,
1999-08-16, 02:49:00,VALID,0,VALID,95.8065,VALID,-0.0339617,VALID,18.5069,VALID,204,VALID,0.699805,
1999-08-16, 02:50:00,VALID,0,VALID,95.9655,VALID,-0.0679233,VALID,18.4908,VALID,210,VALID,0.842694,
1999-08-16, 02:51:00,VALID,0,VALID,96.0863,VALID,-0.0339617,VALID,18.4813,VALID,199,VALID,0.691406,
1999-08-16, 02:52:00,VALID,0,VALID,95.6399,VALID,-0.0169808,VALID,18.4354,VALID,193,VALID,0.518229,
1999-08-16, 02:53:00,VALID,0,VALID,94.2234,VALID,-0.0169808,VALID,18.3387,VALID,179,VALID,0.36287,
1999-08-16, 02:54:00,VALID,0,VALID,94.1547,VALID,-0.0339617,VALID,18.2223,VALID,169,VALID,0.579327,
1999-08-16, 02:55:00,VALID,0,VALID,95.4772,VALID,-0.0169808,VALID,18.148,VALID,162,VALID,0.804688,
1999-08-16, 02:56:00,VALID,0,VALID,96.2541,VALID,-0.0509425,VALID,18.1063,VALID,160,VALID,0.854883,
1999-08-16, 02:57:00,VALID,0,VALID,96.7373,VALID,-0.0339617,VALID,18.077,VALID,161,VALID,0.839453,
1999-08-16, 02:58:00,VALID,0,VALID,97.3973,VALID,-0.0339617,VALID,18.0963,VALID,169,VALID,0.892525,
1999-08-16, 02:59:00,VALID,0,VALID,97.6109,VALID,-0.0679233,VALID,18.1226,VALID,184,VALID,0.912212,
1999-08-16, 03:00:00,VALID,0,VALID,97.5283,VALID,-0.0509425,VALID,18.1222,VALID,178,VALID,0.904848,
1999-08-16, 03:01:00,VALID,0,VALID,97.574,VALID,-0.0339617,VALID,18.1157,VALID,184,VALID,1.14309,
1999-08-16, 03:02:00,VALID,0,VALID,97.8462,VALID,-0.0679233,VALID,18.1739,VALID,185,VALID,1.23297,
1999-08-16, 03:03:00,VALID,0,VALID,97.7076,VALID,-0.0509425,VALID,18.2191,VALID,183,VALID,0.919764,
1999-08-16, 03:04:01,VALID,0,VALID,97.5728,VALID,-0.0339617,VALID,18.2258,VALID,188,VALID,1.03926,
1999-08-16, 03:05:00,VALID,0,VALID,97.3935,VALID,-0.0509425,VALID,18.2355,VALID,197,VALID,0.960742,
1999-08-16, 03:06:00,VALID,0,VALID,97.3324,VALID,-0.0509425,VALID,18.2551,VALID,194,VALID,0.949958,
1999-08-16, 03:07:00,VALID,0,VALID,97.2116,VALID,-0.0339617,VALID,18.2586,VALID,195,VALID,0.796258,
1999-08-16, 03:08:00,VALID,0,VALID,97.3057,VALID,-0.0339617,VALID,18.2807,VALID,198,VALID,0.967949,
1999-08-16, 03:09:00,VALID,0,VALID,97.2307,VALID,0,VALID,18.3004,VALID,190,VALID,0.68236,
1999-08-16, 03:10:00,VALID,0,VALID,96.9891,VALID,-0.0509425,VALID,18.2943,VALID,189,VALID,0.630609,
1999-08-16, 03:11:00,VALID,0,VALID,97.1811,VALID,-0.0509425,VALID,18.2937,VALID,190,VALID,1.0511,
1999-08-16, 03:12:00,VALID,0,VALID,97.0883,VALID,-0.0509425,VALID,18.3163,VALID,185,VALID,0.982813,
1999-08-16, 03:13:00,VALID,0,VALID,96.7348,VALID,-0.0339617,VALID,18.284,VALID,172,VALID,0.925586,
1999-08-16, 03:14:01,VALID,0,VALID,96.8149,VALID,-0.0339617,VALID,18.2747,VALID,168,VALID,0.935177,
1999-08-16, 03:15:00,VALID,0,VALID,96.9916,VALID,-0.0679233,VALID,18.2491,VALID,168,VALID,0.889803,
1999-08-16, 03:16:00,VALID,0,VALID,97.3413,VALID,-0.0509425,VALID,18.2586,VALID,185,VALID,0.96254,
1999-08-16, 03:17:00,VALID,0,VALID,97.4481,VALID,-0.0339617,VALID,18.2708,VALID,196,VALID,1.06928,
1999-08-16, 03:18:00,VALID,0,VALID,97.2485,VALID,-0.0169808,VALID,18.2872,VALID,205,VALID,1.05148,
1999-08-16, 03:19:00,VALID,0,VALID,97.2193,VALID,-0.0169808,VALID,18.3068,VALID,220,VALID,0.974029,
1999-08-16, 03:20:00,VALID,0,VALID,97.2294,VALID,-0.0339617,VALID,18.3262,VALID,218,VALID,1.32734,
1999-08-16, 03:21:00,VALID,0,VALID,97.1608,VALID,-0.0169808,VALID,18.3548,VALID,214,VALID,1.3625,
1999-08-16, 03:22:00,VALID,0,VALID,97.0489,VALID,0,VALID,18.3774,VALID,208,VALID,1.29983,
1999-08-16, 03:23:00,VALID,0,VALID,96.9535,VALID,-0.0169808,VALID,18.4003,VALID,199,VALID,1.19634,
1999-08-16, 03:24:00,VALID,0,VALID,97.0044,VALID,-0.0169808,VALID,18.4294,VALID,191,VALID,1.46955,
1999-08-16, 03:25:00,VALID,0,VALID,96.7538,VALID,-0.0339617,VALID,18.458,VALID,191,VALID,1.52405,
1999-08-16, 03:26:01,VALID,0,VALID,96.5466,VALID,-0.0339617,VALID,18.4776,VALID,194,VALID,1.60837,
1999-08-16, 03:27:00,VALID,0,VALID,96.4143,VALID,-0.0509425,VALID,18.5039,VALID,207,VALID,1.15519,
1999-08-16, 03:28:00,VALID,0,VALID,96.338,VALID,-0.0169808,VALID,18.5099,VALID,198,VALID,1.33965,
1999-08-16, 03:29:00,VALID,0,VALID,96.3113,VALID,-0.0169808,VALID,18.5134,VALID,193,VALID,1.30059,
1999-08-16, 03:30:00,VALID,0,VALID,96.3177,VALID,-0.0339617,VALID,18.5134,VALID,199,VALID,1.19911,
1999-08-16, 03:31:00,VALID,0,VALID,96.3482,VALID,-0.0339617,VALID,18.497,VALID,198,VALID,1.31188,
1999-08-16, 03:32:00,VALID,0,VALID,96.3253,VALID,-0.0509425,VALID,18.4908,VALID,188,VALID,1.26102,
1999-08-16, 03:33:00,VALID,0,VALID,96.3151,VALID,-0.0169808,VALID,18.4677,VALID,189,VALID,0.960115,
1999-08-16, 03:34:00,VALID,0,VALID,96.4067,VALID,-0.0169808,VALID,18.4647,VALID,187,VALID,1.10577,
1999-08-16, 03:35:00,VALID,0,VALID,96.394,VALID,-0.0339617,VALID,18.4388,VALID,190,VALID,1.12247,
1999-08-16, 03:36:01,VALID,0,VALID,96.4042,VALID,-0.0169808,VALID,18.4264,VALID,178,VALID,0.738867,
1999-08-16, 03:37:00,VALID,0,VALID,96.4194,VALID,-0.0339617,VALID,18.4102,VALID,172,VALID,0.616211,
1999-08-16, 03:38:00,VALID,0,VALID,96.5377,VALID,-0.0339617,VALID,18.3874,VALID,190,VALID,0.87859,
1999-08-16, 03:39:00,VALID,0,VALID,96.5847,VALID,-0.0679233,VALID,18.371,VALID,198,VALID,1.0956,
1999-08-16, 03:40:00,VALID,0,VALID,96.5402,VALID,-0.0509425,VALID,18.3615,VALID,204,VALID,0.732171,
1999-08-16, 03:41:00,VALID,0,VALID,96.4372,VALID,-0.0509425,VALID,18.3357,VALID,217,VALID,0.724095,
1999-08-16, 03:42:00,VALID,0,VALID,96.5936,VALID,0,VALID,18.3255,VALID,220,VALID,1.04948,
1999-08-16, 03:43:00,VALID,0,VALID,96.8085,VALID,-0.0679233,VALID,18.3389,VALID,207,VALID,0.948057,
1999-08-16, 03:44:00,VALID,0,VALID,96.7895,VALID,-0.0509425,VALID,18.3454,VALID,205,VALID,0.736914,
1999-08-16, 03:45:00,VALID,0,VALID,96.7462,VALID,-0.0339617,VALID,18.3585,VALID,204,VALID,0.673828,
1999-08-16, 03:46:00,VALID,0,VALID,96.7653,VALID,-0.0849042,VALID,18.358,VALID,191,VALID,0.756123,
1999-08-16, 03:47:00,VALID,0,VALID,96.6966,VALID,-0.0509425,VALID,18.368,VALID,172,VALID,0.63528,
1999-08-16, 03:48:01,VALID,0,VALID,96.6483,VALID,-0.0509425,VALID,18.3839,VALID,170,VALID,0.464543,
1999-08-16, 03:49:00,VALID,0,VALID,95.1999,VALID,-0.0509425,VALID,18.2904,VALID,152,VALID,0.438939,
1999-08-16, 03:50:00,VALID,0,VALID,94.3607,VALID,-0.0849042,VALID,18.187,VALID,134,VALID,0.527244,
1999-08-16, 03:51:00,VALID,0,VALID,94.8286,VALID,-0.0679233,VALID,18.0608,VALID,142,VALID,0.470228,
1999-08-16, 03:52:00,VALID,0,VALID,96.0824,VALID,-0.0679233,VALID,18.0126,VALID,168,VALID,0.733398,
1999-08-16, 03:53:00,VALID,0,VALID,96.7755,VALID,-0.0339617,VALID,17.9996,VALID,164,VALID,0.749219,
1999-08-16, 03:54:00,VALID,0,VALID,96.6598,VALID,0,VALID,17.9341,VALID,163,VALID,0.762035,
1999-08-16, 03:55:00,VALID,0,VALID,97.2358,VALID,0,VALID,17.9307,VALID,164,VALID,0.963816,
1999-08-16, 03:56:00,VALID,0,VALID,97.5435,VALID,0.0169808,VALID,17.9505,VALID,173,VALID,0.822716,
1999-08-16, 03:57:00,VALID,0,VALID,97.747,VALID,0.0339617,VALID,17.9632,VALID,177,VALID,0.895148,
1999-08-16, 03:58:00,VALID,0,VALID,97.9072,VALID,0,VALID,17.989,VALID,194,VALID,0.955729,
1999-08-16, 03:59:01,VALID,0,VALID,97.7419,VALID,0.0169808,VALID,18.0017,VALID,200,VALID,0.968961,
1999-08-16, 04:00:00,VALID,0,VALID,97.5206,VALID,0,VALID,17.9927,VALID,206,VALID,1.14688,
1999-08-16, 04:01:00,VALID,0,VALID,97.644,VALID,0,VALID,17.9925,VALID,206,VALID,1.30781,
1999-08-16, 04:02:00,VALID,0,VALID,97.7419,VALID,0.0339617,VALID,18.0119,VALID,200,VALID,1.16174,